Weather in Pruszkow

Poland     52°09′35″N   20°48′19″E
temp.,
°C
wind,
m/s
gust,
m/s
humid.,
%
clouds,
%
prec.,
mm/h
press.,
hPa
HPBL,
m
6 may, thu
thu623:00+7sw61281100 0.8 1003490
02:00+5wsw714855 0.8 1004833
05:00+4wsw714825 0.0 1005978
08:00+6wsw8147297 0.0 10071071
11:00+10wsw913453 0.0 10081812
14:00+12wsw812375 0.0 10082487
17:00+12wsw6105050 0.0 10071975
20:00+8sw387694 0.3 1007335
7 may, fri
fri723:00+5sw3787100 0.1 1008152
02:00+5ssw2687100 0.1 1007169
05:00+6sse249498 0.3 1005108
08:00+7s5892100 2.3 10041036
11:00+7s51094100 1.4 1002649
14:00+11wsw6127740 2.3 10021239
17:00+7w91387100 0.6 10041091
20:00+5w71294100 1.1 1008850
8 may, sat
sat823:00+4wnw51097100 0.6 1010714
02:00+4w61194100 2.8 1011679
05:00+3w61189100 0.0 1014757
08:00+5w6108891 0.1 1016990
11:00+8w697286 0.4 10171256
14:00+9w686784 0.8 10171321
17:00+11wnw685415 0.1 10181730
20:00+7w34775 0.2 101995
9 may, sun
sun923:00+5sw23795 0.0 102040
02:00+4ssw2382100 0.0 102144
05:00+4s358036 0.0 102084
08:00+9s4865100 0.0 1020319
11:00+15ssw685484 0.0 10191093
14:00+18ssw794672 0.0 10181675
17:00+18s585223 0.0 10171526
20:00+14sse4107110 0.0 1017223
10 may, mon
mon1023:00+11sse4978100 0.0 1017181
02:00+9sse378416 0.0 1018137
05:00+8se410835 0.0 1017194
08:00+12se610668 0.0 1017360
11:00+18sse7105242 0.0 1016806
14:00+21sse811475 0.0 10141277
17:00+21sse71253100 0.0 10131189
20:00+17se513685 0.0 1013463